Time,TemperatureF,DewpointF,PressureIn,WindDirection,WindDirectionDegrees,WindSpeedMPH,WindSpeedGustMPH,Humidity,HourlyPrecipIn,Conditions,Clouds,dailyrainin,SoftwareType,DateUTC
2013-04-01 00:12:00,15.1,9.0,30.38,WNW,299,0.0,5.0,77,0.00,,,0.00,weatherlink.com 1.10,2013-04-01 05:12:00,
2013-04-01 00:27:00,14.5,9.0,30.38,WNW,291,0.0,4.0,77,0.00,,,0.00,weatherlink.com 1.10,2013-04-01 05:27:00,
2013-04-01 00:42:00,14.0,8.0,30.39,WNW,296,0.0,4.0,78,0.00,,,0.00,weatherlink.com 1.10,2013-04-01 05:42:00,
2013-04-01 00:57:00,14.0,8.0,30.39,WNW,300,3.0,6.0,77,0.00,,,0.00,weatherlink.com 1.10,2013-04-01 05:57:00,
2013-04-01 01:12:00,14.1,8.0,30.39,NW,315,2.0,5.0,77,0.00,,,0.00,weatherlink.com 1.10,2013-04-01 06:12:00,
2013-04-01 01:27:00,14.0,8.0,30.39,WNW,284,0.0,3.0,77,0.00,,,0.00,weatherlink.com 1.10,2013-04-01 06:27:00,
2013-04-01 01:42:00,13.7,8.0,30.39,West,274,0.0,2.0,79,0.00,,,0.00,weatherlink.com 1.10,2013-04-01 06:42:00,
2013-04-01 01:57:00,13.6,9.0,30.39,WNW,288,0.0,3.0,80,0.00,,,0.00,weatherlink.com 1.10,2013-04-01 06:57:00,
2013-04-01 02:12:00,13.5,8.0,30.40,WNW,288,0.0,3.0,80,0.00,,,0.00,weatherlink.com 1.10,2013-04-01 07:12:00,
2013-04-01 02:27:00,13.2,8.0,30.40,West,262,0.0,2.0,79,0.00,,,0.00,weatherlink.com 1.10,2013-04-01 07:27:00,
2013-04-01 02:42:00,13.0,8.0,30.41,West,264,1.0,2.0,80,0.00,,,0.00,weatherlink.com 1.10,2013-04-01 07:42:00,
2013-04-01 02:57:00,12.8,8.0,30.41,West,274,0.0,2.0,80,0.00,,,0.00,weatherlink.com 1.10,2013-04-01 07:57:00,
2013-04-01 03:12:00,12.7,8.0,30.41,West,276,0.0,1.0,80,0.00,,,0.00,weatherlink.com 1.10,2013-04-01 08:12:00,
2013-04-01 03:27:00,12.7,8.0,30.41,West,264,1.0,2.0,81,0.00,,,0.00,weatherlink.com 1.10,2013-04-01 08:27:00,
2013-04-01 03:42:00,12.9,8.0,30.41,West,267,1.0,3.0,80,0.00,,,0.00,weatherlink.com 1.10,2013-04-01 08:42:00,
2013-04-01 03:57:00,12.6,7.0,30.41,West,277,2.0,3.0,79,0.00,,,0.00,weatherlink.com 1.10,2013-04-01 08:57:00,
2013-04-01 04:12:00,12.8,7.0,30.42,West,280,1.0,3.0,79,0.00,,,0.00,weatherlink.com 1.10,2013-04-01 09:12:00,
2013-04-01 04:27:00,13.2,8.0,30.42,West,274,1.0,5.0,79,0.00,,,0.00,weatherlink.com 1.10,2013-04-01 09:27:00,
2013-04-01 04:42:00,13.6,8.0,30.42,WNW,284,3.0,7.0,79,0.00,,,0.00,weatherlink.com 1.10,2013-04-01 09:42:00,
2013-04-01 04:57:00,13.3,8.0,30.42,West,281,2.0,6.0,79,0.00,,,0.00,weatherlink.com 1.10,2013-04-01 09:57:00,
2013-04-01 05:12:00,12.9,8.0,30.42,WNW,297,2.0,5.0,79,0.00,,,0.00,weatherlink.com 1.10,2013-04-01 10:12:00,
2013-04-01 05:27:00,12.4,7.0,30.43,WNW,293,2.0,5.0,80,0.00,,,0.00,weatherlink.com 1.10,2013-04-01 10:27:00,
2013-04-01 05:42:00,11.9,7.0,30.43,WNW,284,1.0,5.0,79,0.00,,,0.00,weatherlink.com 1.10,2013-04-01 10:42:00,
2013-04-01 05:58:00,11.4,6.0,30.44,West,267,1.0,4.0,80,0.00,,,0.00,weatherlink.com 1.10,2013-04-01 10:58:00,
2013-04-01 06:13:00,11.1,6.0,30.44,West,273,1.0,5.0,80,0.00,,,0.00,weatherlink.com 1.10,2013-04-01 11:13:00,
2013-04-01 06:28:00,10.9,6.0,30.45,NW,308,0.0,4.0,80,0.00,,,0.00,weatherlink.com 1.10,2013-04-01 11:28:00,
2013-04-01 06:43:00,10.7,6.0,30.45,West,279,1.0,4.0,80,0.00,,,0.00,weatherlink.com 1.10,2013-04-01 11:43:00,
2013-04-01 06:58:00,10.3,5.0,30.46,West,262,1.0,4.0,80,0.00,,,0.00,weatherlink.com 1.10,2013-04-01 11:58:00,
2013-04-01 07:13:00,10.3,5.0,30.46,WNW,293,2.0,3.0,80,0.00,,,0.00,weatherlink.com 1.10,2013-04-01 12:13:00,
2013-04-01 07:28:00,10.2,5.0,30.47,West,267,1.0,2.0,80,0.00,,,0.00,weatherlink.com 1.10,2013-04-01 12:28:00,
2013-04-01 07:43:00,10.6,6.0,30.47,WSW,238,1.0,4.0,80,0.00,,,0.00,weatherlink.com 1.10,2013-04-01 12:43:00,
2013-04-01 07:58:00,11.1,6.0,30.48,West,269,2.0,3.0,79,0.00,,,0.00,weatherlink.com 1.10,2013-04-01 12:58:00,
2013-04-01 08:13:00,12.2,7.0,30.48,WNW,295,2.0,2.0,78,0.00,,,0.00,weatherlink.com 1.10,2013-04-01 13:13:00,
2013-04-01 08:28:00,13.4,7.0,30.48,West,272,0.0,6.0,75,0.00,,,0.00,weatherlink.com 1.10,2013-04-01 13:28:00,
2013-04-01 08:43:00,14.1,7.0,30.48,NW,318,1.0,6.0,74,0.00,,,0.00,weatherlink.com 1.10,2013-04-01 13:43:00,
2013-04-01 08:58:00,14.5,7.0,30.49,NW,311,2.0,7.0,73,0.00,,,0.00,weatherlink.com 1.10,2013-04-01 13:58:00,
2013-04-01 09:13:00,15.3,8.0,30.49,WSW,257,3.0,5.0,72,0.00,,,0.00,weatherlink.com 1.10,2013-04-01 14:13:00,
2013-04-01 09:27:00,15.7,8.0,30.49,West,259,2.0,7.0,72,0.00,,,0.00,weatherlink.com 1.10,2013-04-01 14:27:00,
2013-04-01 09:42:00,16.4,9.0,30.49,WNW,285,2.0,5.0,72,0.00,,,0.00,weatherlink.com 1.10,2013-04-01 14:42:00,
2013-04-01 09:57:00,16.8,9.0,30.49,NW,319,4.0,8.0,71,0.00,,,0.00,weatherlink.com 1.10,2013-04-01 14:57:00,
2013-04-01 10:12:00,17.1,9.0,30.50,NW,306,4.0,8.0,70,0.00,,,0.00,weatherlink.com 1.10,2013-04-01 15:12:00,
2013-04-01 10:27:00,17.9,9.0,30.50,WNW,301,2.0,7.0,69,0.00,,,0.00,weatherlink.com 1.10,2013-04-01 15:27:00,
2013-04-01 10:42:00,18.8,11.0,30.50,WNW,301,4.0,6.0,70,0.00,,,0.00,weatherlink.com 1.10,2013-04-01 15:42:00,
2013-04-01 10:57:00,19.6,11.0,30.50,West,280,3.0,6.0,70,0.00,,,0.00,weatherlink.com 1.10,2013-04-01 15:57:00,
2013-04-01 11:12:00,20.6,12.0,30.50,WNW,287,2.0,8.0,69,0.00,,,0.00,weatherlink.com 1.10,2013-04-01 16:12:00,
2013-04-01 11:28:00,21.3,12.0,30.50,NW,308,3.0,6.0,67,0.00,,,0.00,weatherlink.com 1.10,2013-04-01 16:28:00,
2013-04-01 11:42:00,21.9,12.0,30.50,NW,318,4.0,5.0,67,0.00,,,0.00,weatherlink.com 1.10,2013-04-01 16:42:00,
2013-04-01 11:58:00,22.4,13.0,30.51,West,278,2.0,8.0,67,0.00,,,0.00,weatherlink.com 1.10,2013-04-01 16:58:00,
2013-04-01 12:13:00,23.0,13.0,30.51,NW,322,3.0,8.0,66,0.00,,,0.00,weatherlink.com 1.10,2013-04-01 17:13:00,
2013-04-01 12:28:00,23.3,13.0,30.50,WNW,294,3.0,6.0,64,0.00,,,0.00,weatherlink.com 1.10,2013-04-01 17:28:00,
2013-04-01 12:43:00,24.1,13.0,30.51,WNW,301,2.0,8.0,62,0.00,,,0.00,weatherlink.com 1.10,2013-04-01 17:43:00,
2013-04-01 12:58:00,24.4,13.0,30.50,West,274,2.0,6.0,62,0.00,,,0.00,weatherlink.com 1.10,2013-04-01 17:58:00,
2013-04-01 13:13:00,25.0,14.0,30.50,NW,323,2.0,8.0,63,0.00,,,0.00,weatherlink.com 1.10,2013-04-01 18:13:00,
2013-04-01 13:28:00,25.3,14.0,30.50,NW,326,4.0,8.0,62,0.00,,,0.00,weatherlink.com 1.10,2013-04-01 18:28:00,
2013-04-01 13:43:00,26.2,14.0,30.50,WNW,295,5.0,7.0,61,0.00,,,0.00,weatherlink.com 1.10,2013-04-01 18:43:00,
2013-04-01 13:58:00,25.6,15.0,30.49,WNW,290,3.0,9.0,64,0.00,,,0.00,weatherlink.com 1.10,2013-04-01 18:58:00,
2013-04-01 14:13:00,26.4,16.0,30.49,WNW,297,3.0,7.0,64,0.00,,,0.00,weatherlink.com 1.10,2013-04-01 19:13:00,
2013-04-01 14:28:00,26.8,15.0,30.49,NW,321,3.0,5.0,62,0.00,,,0.00,weatherlink.com 1.10,2013-04-01 19:28:00,
2013-04-01 14:43:00,27.1,16.0,30.48,WNW,287,3.0,6.0,62,0.00,,,0.00,weatherlink.com 1.10,2013-04-01 19:43:00,
2013-04-01 14:58:00,26.9,14.0,30.48,WNW,301,3.0,9.0,59,0.00,,,0.00,weatherlink.com 1.10,2013-04-01 19:58:00,
2013-04-01 15:13:00,27.6,14.0,30.48,WNW,301,6.0,9.0,58,0.00,,,0.00,weatherlink.com 1.10,2013-04-01 20:13:00,
2013-04-01 15:28:00,28.0,15.0,30.48,West,259,4.0,8.0,58,0.00,,,0.00,weatherlink.com 1.10,2013-04-01 20:28:00,
2013-04-01 15:43:00,28.2,15.0,30.48,NNW,330,3.0,8.0,59,0.00,,,0.00,weatherlink.com 1.10,2013-04-01 20:43:00,
2013-04-01 15:58:00,28.7,15.0,30.48,NNW,332,4.0,9.0,58,0.00,,,0.00,weatherlink.com 1.10,2013-04-01 20:58:00,
2013-04-01 16:13:00,28.6,15.0,30.48,WNW,297,6.0,8.0,58,0.00,,,0.00,weatherlink.com 1.10,2013-04-01 21:13:00,
2013-04-01 16:28:00,28.1,17.0,30.47,WNW,291,4.0,10.0,63,0.00,,,0.00,weatherlink.com 1.10,2013-04-01 21:28:00,
2013-04-01 16:43:00,28.1,17.0,30.47,NW,325,1.0,10.0,63,0.00,,,0.00,weatherlink.com 1.10,2013-04-01 21:43:00,
2013-04-01 16:58:00,28.2,16.0,30.47,WNW,294,5.0,9.0,60,0.00,,,0.00,weatherlink.com 1.10,2013-04-01 21:58:00,
2013-04-01 17:13:00,28.0,16.0,30.47,NW,323,6.0,9.0,61,0.00,,,0.00,weatherlink.com 1.10,2013-04-01 22:13:00,
2013-04-01 17:28:00,27.9,16.0,30.47,NW,318,4.0,8.0,60,0.00,,,0.00,weatherlink.com 1.10,2013-04-01 22:28:00,
2013-04-01 17:43:00,28.2,16.0,30.47,WNW,302,5.0,6.0,61,0.00,,,0.00,weatherlink.com 1.10,2013-04-01 22:43:00,
2013-04-01 17:58:00,27.8,16.0,30.47,NW,309,4.0,8.0,62,0.00,,,0.00,weatherlink.com 1.10,2013-04-01 22:58:00,
2013-04-01 18:13:00,27.9,16.0,30.47,NNW,328,2.0,7.0,61,0.00,,,0.00,weatherlink.com 1.10,2013-04-01 23:13:00,
2013-04-01 18:28:00,27.7,16.0,30.46,NNW,328,1.0,6.0,63,0.00,,,0.00,weatherlink.com 1.10,2013-04-01 23:28:00,
2013-04-01 18:43:00,27.5,17.0,30.46,North,356,2.0,3.0,64,0.00,,,0.00,weatherlink.com 1.10,2013-04-01 23:43:00,
2013-04-01 18:58:00,27.2,16.0,30.46,WNW,290,2.0,5.0,64,0.00,,,0.00,weatherlink.com 1.10,2013-04-01 23:58:00,
2013-04-01 19:13:00,27.5,17.0,30.45,NNW,330,0.0,4.0,64,0.00,,,0.00,weatherlink.com 1.10,2013-04-02 00:13:00,
2013-04-01 19:28:00,26.7,17.0,30.45,North,358,0.0,1.0,66,0.00,,,0.00,weatherlink.com 1.10,2013-04-02 00:28:00,
2013-04-01 19:43:00,25.5,16.0,30.44,NW,326,0.0,1.0,68,0.00,,,0.00,weatherlink.com 1.10,2013-04-02 00:43:00,
2013-04-01 19:58:00,24.9,16.0,30.44,NW,325,0.0,1.0,69,0.00,,,0.00,weatherlink.com 1.10,2013-04-02 00:58:00,
2013-04-01 20:13:00,24.1,15.0,30.44,NW,325,0.0,0.0,69,0.00,,,0.00,weatherlink.com 1.10,2013-04-02 01:13:00,
2013-04-01 20:28:00,23.8,15.0,30.44,NW,324,0.0,0.0,70,0.00,,,0.00,weatherlink.com 1.10,2013-04-02 01:28:00,
2013-04-01 20:43:00,23.4,16.0,30.44,NW,325,0.0,0.0,72,0.00,,,0.00,weatherlink.com 1.10,2013-04-02 01:43:00,
2013-04-01 20:58:00,22.9,16.0,30.44,WNW,303,0.0,0.0,75,0.00,,,0.00,weatherlink.com 1.10,2013-04-02 01:58:00,
2013-04-01 21:13:00,22.3,16.0,30.45,West,276,0.0,0.0,75,0.00,,,0.00,weatherlink.com 1.10,2013-04-02 02:13:00,
2013-04-01 21:28:00,21.9,16.0,30.45,WSW,245,0.0,1.0,79,0.00,,,0.00,weatherlink.com 1.10,2013-04-02 02:28:00,
2013-04-01 21:43:00,21.4,16.0,30.45,WSW,246,0.0,0.0,79,0.00,,,0.00,weatherlink.com 1.10,2013-04-02 02:43:00,
2013-04-01 21:58:00,20.7,15.0,30.45,WSW,246,0.0,0.0,80,0.00,,,0.00,weatherlink.com 1.10,2013-04-02 02:58:00,
2013-04-01 22:13:00,20.2,16.0,30.46,WNW,297,1.0,2.0,82,0.00,,,0.00,weatherlink.com 1.10,2013-04-02 03:13:00,
2013-04-01 22:28:00,20.7,15.0,30.45,WNW,283,0.0,2.0,80,0.00,,,0.00,weatherlink.com 1.10,2013-04-02 03:28:00,
2013-04-01 22:43:00,20.9,15.0,30.45,WSW,255,0.0,1.0,79,0.00,,,0.00,weatherlink.com 1.10,2013-04-02 03:43:00,
2013-04-01 22:58:00,20.0,15.0,30.45,WSW,249,0.0,1.0,80,0.00,,,0.00,weatherlink.com 1.10,2013-04-02 03:58:00,
2013-04-01 23:13:00,19.1,14.0,30.45,WSW,245,0.0,0.0,81,0.00,,,0.00,weatherlink.com 1.10,2013-04-02 04:13:00,
2013-04-01 23:28:00,18.5,14.0,30.45,WSW,246,0.0,0.0,82,0.00,,,0.00,weatherlink.com 1.10,2013-04-02 04:28:00,
2013-04-01 23:43:00,18.0,14.0,30.45,WSW,246,0.0,0.0,83,0.00,,,0.00,weatherlink.com 1.10,2013-04-02 04:43:00,
2013-04-01 23:58:00,17.6,14.0,30.44,WSW,246,0.0,0.0,84,0.00,,,0.00,weatherlink.com 1.10,2013-04-02 04:58:00,